Regional Weather Roundup
Issued by NWS

Home | Current Version | Previous Version | Graphics & Text | Print | Product List | Glossary On
Versions: 1 2 3 4 5 6 7 8 9 10 11 12 13 14 15 16 17 18 19 20 21 22 23 24 25 26 27 28 29 30 31 32 33 34 35 36 37 38 39 40 41 42 43 44 45 46 47 48 49 50
000
ASUS43 KLOT 241603
RWRIL

ILLINOIS REGIONAL WEATHER ROUNDUP
NATIONAL WEATHER SERVICE CHICAGO/ROMEOVILLE IL
1100 AM CDT MON APR 24 2017

NOTE: "FAIR" INDICATES FEW OR NO CLOUDS BELOW 12,000 FEET WITH NO
SIGNIFICANT WEATHER AND/OR OBSTRUCTIONS TO VISIBILITY.

* THESE STATIONS ARE NOT UNDER NWS QUALITY CONTROL. THEY ALSO MAY NOT
  REPORT WEATHER SUCH AS PRECIPITATION OR FOG.

ILZ001-002-007-009-015-016-024-241700-
NORTHWEST ILLINOIS

CITY           SKY/WX    TMP DP  RH WIND       PRES   REMARKS
MOLINE         CLOUDY    69  34  27 SE14G21   29.93F
STERLING*      SUNNY     68  34  28 VRB7G16   29.97F
SAVANNA*       SUNNY     69  32  26 S15G21    29.94F
$$

ILZ003-004-008-010-011-017-018-241700-
NORTH CENTRAL ILLINOIS

CITY           SKY/WX    TMP DP  RH WIND       PRES   REMARKS
ROCKFORD       CLOUDY    67  39  35 S12       29.98F
FREEPORT*      MOSUNNY   65  36  34 S13       29.99F
ROCHELLE*      MOSUNNY   67  34  29 S15G21    29.99F
DE KALB*       SUNNY     66  37  33 SE10      29.99F
PERU*          SUNNY     67  32  27 SE10      29.97F
$$

ILZ005-006-012>014-019>023-241700-
NORTHEAST ILLINOIS

CITY           SKY/WX    TMP DP  RH WIND       PRES   REMARKS
CHICAGO-OHARE  PTSUNNY   66  35  31 SE10      29.99F
CHICAGO-MIDWAY PTSUNNY   66  33  29 E10       30.00F
AURORA         SUNNY     68  36  30 SE8       29.99F
LANSING*       SUNNY     67  40  37 SE14      29.99F
JOLIET*        SUNNY     68  31  24 SE10G17   29.99F
WAUKEGAN       SUNNY     56  41  57 E6        30.01S
DUPAGE AIRPORT SUNNY     67  34  29 SE10      29.98F
KANKAKEE*      SUNNY     69  35  28 SE10      29.99F
WHEELING       MOSUNNY   64  39  39 SE6       30.01F
MORRIS*        SUNNY     68  31  25 SE12G17   29.97F
NORTHERLY ISL    N/A     49  42  77 NE5         N/A
$$

LMZ740>746-241700-
SOUTHERN LAKE MICHIGAN

STATION/POSITION SKY/WX   TEMP    WIND        PRES    VSBY  WAVE
                          AIR SEA DIR/SP/G                  HT/PER
                          (F)     (DEG/KT/KT) (MB)    (MI)  (FT/S)
SOUTHERN BUOY              42 41   90/  6/  8 1017.7          2/ 6
HARRISON CRIB              45      20/  4/  4   N/A
BURNHAM HARBOR             50      30/  4/  6   N/A
CALUMET HARBOR             49      20/  6/  8 1015.9F
BURNS HARBOR               47        CALM     1016.6F
MICHIGAN CITY              53     360/  7/  8   N/A
ST. JOSEPH                 60 51  140/  6/ 10 1016.4F         2/ 2
$$

ILZ025>027-034>036-040-047-049-050-058-095>099-241700-
WEST-CENTRAL ILLINOIS

CITY           SKY/WX    TMP DP  RH WIND       PRES   REMARKS
QUINCY         MOSUNNY   68  32  26 S12       29.94F
GALESBURG*     SUNNY     67  37  33 S10       29.94F
MACOMB*        SUNNY     69  29  22 S15       29.97F
JACKSONVILLE*  SUNNY     68  33  26 SE7       29.95F
PITTSFIELD*    MOSUNNY   68  34  27 SE10      29.96F
$$

ILZ028>032-037-038-041>044-048-051>054-059>061-241700-
CENTRAL ILLINOIS

CITY           SKY/WX    TMP DP  RH WIND       PRES   REMARKS
PONTIAC        SUNNY     69  28  21 SE10      29.98F
DECATUR        SUNNY     69  36  29 E10       29.95F
PEORIA         SUNNY     69  26  20 S10       29.96F
LACON*         SUNNY     69  30  23 SE9       29.96F
LINCOLN*       SUNNY     70  34  27 SE8       29.96F
SPRINGFIELD    SUNNY     70  35  27 E8        29.96F
TAYLORVILLE    SUNNY     69  33  26 SE9       29.96F
$$

ILZ033-039-045-046-055>057-062-063-241700-
EAST-CENTRAL ILLINOIS

CITY           SKY/WX    TMP DP  RH WIND       PRES   REMARKS
CHAMPAIGN      SUNNY     70  30  22 E10       29.96F
RANTOUL*       SUNNY     70  33  25 SE10G16   29.97F
MATTOON        SUNNY     69  33  26 E9G20     29.94F
PARIS*         SUNNY     71  34  25 E12       29.95F
$$

ILZ079-100>102-241700-
SOUTHWEST ILLINOIS

CITY           SKY/WX    TMP DP  RH WIND       PRES   REMARKS
ALTON          MOSUNNY   68  36  30 E9        29.96F
BELLEVILLE     MOSUNNY   69  37  31 E5        29.94F
SPARTA*        MOSUNNY   67  41  38 E7        29.96S
$$

ILZ064>066-069>071-074>076-080>082-084>086-088>090-092>094-241700-
SOUTH-CENTRAL ILLINOIS

CITY           SKY/WX    TMP DP  RH WIND       PRES   REMARKS
CARBONDALE     CLOUDY    67  46  47 NE6       29.93F
CAIRO*         CLOUDY    66  45  47 NE8       29.91F
EFFINGHAM*     SUNNY     69  37  30 E9        29.96S
MARION         MOSUNNY   68  41  37 NE7       29.93F
MT. VERNON     SUNNY     69  41  36 E8G17     29.93F
CENTRALIA*     SUNNY     69  38  31 E10       29.93F
SALEM*         SUNNY     69  32  25 E7        29.94F
METROPOLIS*    SUNNY     69  47  45 NE9       29.90F
$$

ILZ067-068-072-073-078-083-087-091-241700-
SOUTHEAST ILLINOIS

CITY           SKY/WX    TMP DP  RH WIND       PRES   REMARKS
LAWRENCEVILLE  SUNNY     70  32  24 NE15G24   29.91F
FLORA*         SUNNY     69  34  27 NE9       29.94S
FAIRFIELD*     SUNNY     69  38  32 NE7       29.92S
HARRISBURG*    SUNNY     65  45  47 CALM      29.92F
ROBINSON*      SUNNY     69  35  28 NE18      29.92F
CARMI*         SUNNY     67  43  42 NE6       29.90F
$$

ABBREVIATIONS USED IN REMARKS
   TC - TEMPERATURE IN CELSIUS
  WCI - WIND CHILL INDEX
   HX - HEAT INDEX
  VSB - VISIBILITY
$$





USA.gov is the U.S. government's official web portal to all federal, state and local government web resources and services.